Погода в Талицах

Россия / Ивановская область     56°31′34″N   42°19′56″E
темп.,
°C
ветер,
м/с
пор.,
м/с
влажн.,
%
обл.,
%
осадки,
мм/ч
давл.,
гПа
погр.,
м
10 апреля, сб
сб1000:00−3ююв11950 0.0 102716
03:00−3ююв22950 0.0 102838
06:00−4ююв25940 0.0 102981
09:00+4ю35740 0.0 1029340
12:00+7ю34600 0.0 1028993
15:00+8ююв33555 0.0 10271286
18:00+5юв26810 0.0 1027138
21:000юв28950 0.0 1028117
11 апреля, вс
вс1100:00−2ююв25972 0.0 102765
03:00−2ю25950 0.0 102868
06:00−1ююз25940 0.0 102885
09:00+7юз24610 0.0 1029311
12:00+11зюз23540 0.0 1030860
15:00+12зюз23510 0.0 1030933
18:00+9ююв117842 0.0 103112
21:00+3ююв11933 0.0 103310
12 апреля, пн
пн1200:00+2юв1193100 0.0 103410
03:00+1в129198 0.0 103413
06:00+1в239181 0.0 103563
09:00+7в3769100 0.0 1035346
12:00+10в4748100 0.0 1034620
15:00+11вюв5760100 0.0 1033602
18:00+8в4984100 0.0 1032423
21:00+6в3995100 0.0 1032274
13 апреля, вт
вт1300:00+6вюв3998100 0.0 1031223
03:00+5вюв3897100 0.0 1030157
06:00+6юв2795100 0.0 1029140
09:00+12ююв487179 0.0 1028325
12:00+18ю474815 0.0 1027945
15:00+19ю463618 0.0 10261535
18:00+16ююв234937 0.0 102546
21:00+11ююв376962 0.0 1026106
14 апреля, ср
ср1400:00+9ю247461 0.0 102666
03:00+8ю227826 0.0 102620
06:00+7ююв23785 0.0 102643
09:00+14ю345650 0.0 1025303
12:00+19ююв4541100 0.0 1024900
15:00+20ююв4536100 0.0 10231359
18:00+17юв374793 0.0 1022215
21:00+12юв3106694 0.0 1022205